SCP
1 1 1 1 0 0 0 0 0 0 0 0 0 0 0 0 0 0 0 0 0 0 0 0 0 0 0 0 0 0 0 0 0 1 1 1 0 0 1 1 1 1 1
0 1 1 1 1 0 0 0 0 0 0 0 0 0 0 0 0 0 0 0 0 0 0 0 0 0 0 0 0 0 0 0 0 1 1 0 0 0 0 0 0 1 1
0 1 1 1 1 1 0 0 0 0 0 0 0 0 0 0 0 0 0 0 0 0 0 0 0 0 0 0 0 0 0 0 0 0 0 0 0 0 0 0 0 0 1
0 1 2 2 1 1 0 0 0 0 0 0 0 0 0 0 0 0 0 0 0 0 0 0 0 0 0 0 0 0 0 0 0 0 0 0 0 0 0 0 0 0 1
0 1 1 1 1 1 0 0 0 0 0 0 0 0 0 0 0 0 0 0 0 0 0 0 0 0 0 0 0 0 0 0 0 0 0 0 0 0 0 0 0 0 1
1 1 1 1 1 1 1 0 0 0 0 0 0 0 0 0 0 0 0 0 0 0 0 0 0 0 0 0 0 0 0 0 0 0 0 0 0 0 0 0 0 0 1
0 1 1 2 1 1 1 1 0 0 0 0 0 0 0 0 0 0 0 0 0 0 0 0 0 0 0 0 0 0 0 0 0 0 0 0 0 0 0 0 0 0 0
0 1 1 2 2 1 1 1 0 0 0 0 0 0 0 0 0 0 0 0 0 0 0 0 0 0 0 0 0 0 0 0 0 0 0 0 0 0 0 0 0 0 0
0 1 1 2 1 1 1 1 0 0 0 0 0 0 0 0 0 0 0 0 0 0 0 0 0 0 0 0 0 0 0 0 0 0 0 0 0 0 0 0 0 0 0
0 1 1 1 1 1 1 0 0 0 0 0 0 0 0 0 0 0 0 0 0 0 0 0 0 0 0 0 0 0 0 0 0 0 0 0 0 0 0 0 0 0 0
0 0 1 1 1 1 1 0 0 0 0 0 0 0 0 0 0 0 0 0 0 0 0 0 0 0 0 0 0 0 0 0 0 0 0 0 0 0 0 0 0 0 0
0 0 1 1 1 1 1 0 0 0 0 0 0 0 0 0 0 0 0 0 0 0 0 0 0 0 0 0 0 0 0 0 0 0 0 0 0 0 0 0 0 0 0
0 0 1 1 1 1 0 0 0 0 0 0 0 0 0 0 0 0 0 0 0 0 0 0 0 0 0 0 0 0 0 0 0 0 0 0 0 0 0 0 0 0 0
1 1 1 1 1 0 0 0 0 0 0 0 0 0 0 0 0 0 0 0 0 0 0 0 0 0 0 0 0 0 0 0 0 0 0 0 0 0 0 0 0 0 0
1 1 1 1 1 0 0 0 0 0 0 0 0 0 0 0 0 0 0 0 0 0 0 0 0 0 0 0 0 0 0 0 0 0 0 0 0 0 0 0 0 0 0
1 1 1 1 0 0 0 0 0 0 0 0 0 0 0 0 0 0 0 0 0 0 0 0 0 0 0 0 0 0 0 0 0 0 0 0 0 0 0 0 0 0 0
0 0 0 0 0 0 0 0 0 0 0 0 0 0 0 0 0 0 0 0 0 0 0 0 0 0 0 0 0 0 0 0 0 0 0 0 0 0 0 0 0 0 0
0 0 0 0 0 0 0 0 0 0 0 0 0 0 0 0 0 0 0 0 0 0 0 0 0 0 0 0 0 0 0 0 0 0 0 0 0 0 0 0 0 0 0
0 0 0 0 0 0 0 0 0 0 0 0 0 0 0 0 0 0 0 0 0 0 0 0 0 0 0 0 0 0 0 0 0 0 0 0 0 0 0 0 0 0 0
0 0 0 0 0 0 0 0 0 0 0 0 0 0 0 0 0 0 0 0 0 0 0 0 0 0 0 0 0 0 0 0 0 0 0 0 0 0 0 0 0 0 0
0 0 0 0 0 0 0 0 0 0 0 0 0 0 0 0 0 0 0 0 0 0 0 0 0 0 0 0 0 0 0 0 0 0 0 0 0 0 0 0 0 0 0
0 0 0 0 0 0 0 0 0 0 0 0 0 0 0 0 0 0 0 0 0 0 0 0 0 0 0 0 0 0 0 0 0 0 0 0 0 0 0 0 0 0 0
0 0 0 0 0 0 0 0 0 0 0 0 0 0 0 0 0 0 0 0 0 0 0 0 0 0 0 0 0 0 0 0 0 0 0 0 0 0 0 0 0 0 0
0 0 0 0 0 0 0 0 0 0 0 0 0 0 0 0 0 0 0 0 0 0 0 0 0 0 0 0 0 0 0 0 0 0 0 0 0 0 0 0 0 0 0
0 0 0 0 0 0 0 0 0 0 0 1 1 0 0 0 0 0 0 0 0 0 0 0 0 0 0 0 0 0 0 0 0 0 0 0 0 0 0 0 0 0 0
0 0 0 0 0 0 0 0 0 0 0 1 1 0 0 0 0 0 0 0 0 0 0 0 0 0 0 0 0 0 0 0 0 0 0 0 0 0 0 0 0 0 0
Wind_Speed
10 10 9 7 6 5 4 7 4 3 3 2 1 2 2 1 2 2 3 2 3 4 4 3 4 3 2 3 3 2 3 2 1 1 2 2 2 3 2 2 1 1 1
9 10 10 8 6 6 4 5 5 4 4 3 1 1 1 1 1 1 2 3 3 4 5 4 3 3 2 3 3 3 2 2 2 1 1 1 1 1 2 2 2 2 1
9 12 11 9 7 6 6 4 5 5 5 3 1 1 1 1 1 1 1 1 1 2 3 4 4 3 2 2 3 3 3 2 2 1 0 0 1 1 1 1 1 1 1
6 10 10 9 8 7 6 5 5 5 5 3 2 1 1 1 1 0 1 1 2 2 2 3 4 3 2 3 3 3 2 2 2 2 1 1 0 0 1 1 1 1 1
6 8 10 9 8 8 6 5 6 5 5 3 4 1 1 1 1 1 1 1 1 1 1 2 3 3 2 3 3 3 2 2 2 2 2 2 1 1 1 1 1 1 1
6 7 9 8 7 7 7 5 6 5 5 3 3 3 1 0 1 1 0 1 1 1 2 1 2 2 3 3 3 3 2 1 2 2 2 2 2 1 1 1 1 1 1
7 8 9 9 8 8 7 6 6 6 5 5 4 4 3 2 3 1 0 2 1 1 2 2 2 2 2 2 2 3 2 2 1 1 1 2 1 1 1 1 1 1 1
7 8 9 9 9 9 8 7 7 6 6 5 5 4 4 3 1 1 1 1 0 2 2 1 1 1 2 3 2 2 2 2 2 2 1 1 1 1 1 1 1 2 2
6 8 9 10 9 9 9 8 8 7 7 6 5 4 3 3 1 1 2 0 0 1 1 1 1 0 1 1 2 2 2 2 2 2 3 2 1 1 1 1 0 0 1
6 8 8 9 10 9 9 8 8 7 7 6 4 3 2 2 2 1 0 1 1 2 1 2 2 0 1 1 1 2 2 2 1 1 1 1 1 2 1 1 1 1 0
7 7 8 8 9 9 9 8 8 7 6 6 5 5 4 3 3 3 2 1 1 1 2 2 1 1 1 1 1 1 1 2 2 2 1 1 1 1 2 1 1 1 0
7 8 8 8 8 9 9 9 8 8 7 6 5 5 5 4 4 3 3 3 2 2 2 1 0 1 1 1 1 1 1 1 1 2 2 2 1 1 1 1 2 2 1
7 7 8 8 9 8 8 9 8 8 7 6 5 5 6 5 4 3 3 2 2 2 2 1 1 1 0 1 1 1 1 1 1 0 1 1 1 1 1 1 1 1 2
7 8 8 9 9 9 9 8 8 8 8 7 6 5 5 5 5 4 3 2 2 2 2 1 1 1 1 0 2 2 2 1 1 0 1 0 1 1 2 2 2 2 2
6 8 9 9 9 9 9 9 8 8 8 8 7 6 6 6 5 4 4 3 2 2 2 1 1 1 1 1 0 2 3 2 1 1 1 2 3 3 1 1 2 3 2
5 7 9 10 11 11 10 9 9 9 9 9 8 7 6 6 5 4 4 3 2 2 2 2 2 2 1 3 3 1 3 4 3 2 2 3 4 5 5 4 4 3 2
4 5 7 9 11 12 12 10 10 9 9 9 8 8 7 6 6 6 5 4 4 4 4 3 3 3 2 4 5 4 2 4 4 3 2 1 2 4 2 4 6 7 8
3 4 5 6 9 10 11 11 10 10 10 9 9 8 8 7 6 5 5 4 4 4 4 4 4 3 3 6 6 5 4 5 5 4 3 2 1 2 1 1 2 3 3
3 3 4 5 7 9 10 11 11 11 10 9 9 9 9 8 7 7 6 5 4 3 3 3 4 3 3 5 6 4 3 4 5 4 2 2 2 2 2 0 2 3 3
4 3 2 3 5 6 8 10 11 11 10 10 9 9 9 9 8 7 6 4 4 4 3 3 3 3 2 4 5 4 2 4 4 2 1 2 3 4 3 0 1 2 3
5 3 2 3 3 4 6 9 9 10 10 9 9 8 8 9 8 6 5 4 4 4 3 3 3 2 2 4 5 4 2 2 3 2 0 1 4 4 2 1 1 2 3
5 4 3 3 2 3 5 7 8 8 9 9 9 8 8 8 7 6 5 4 4 3 4 3 3 2 2 4 4 5 4 2 2 2 1 1 3 3 2 1 1 3 3
5 4 3 3 3 3 4 6 6 7 9 9 9 8 8 7 7 7 6 4 4 3 3 2 2 1 2 3 2 2 3 4 1 0 1 2 2 2 1 1 1 2 1
6 4 4 4 4 4 4 4 5 7 9 9 9 8 8 7 6 5 4 4 3 3 2 2 2 1 2 3 2 2 1 1 1 1 1 2 2 1 1 1 1 1 1
7 5 5 5 5 5 4 5 5 7 9 10 9 9 7 7 6 5 3 4 2 3 3 2 2 2 2 2 3 1 1 1 1 1 1 1 1 2 2 2 2 1 2
8 7 6 6 6 6 5 6 6 8 9 9 10 8 7 7 7 7 5 8 6 8 9 8 6 5 6 5 4 4 3 2 2 2 2 2 2 2 2 2 2 2 3
Wind_Direction
177 158 149 142 148 155 145 122 133 128 107 79 28 31 43 355 50 58 64 5 360 2 343 351 347 355 352 345 338 334 331 312 288 313 303 269 211 197 214 242 271 278 244
168 151 149 148 164 157 146 137 135 113 103 101 55 147 86 305 102 72 80 31 18 6 351 360 346 348 339 352 345 346 347 323 330 349 328 319 311 259 206 203 221 243 227
175 158 157 155 162 158 151 145 127 132 119 130 89 30 16 289 51 46 80 53 41 21 1 342 339 337 351 356 341 5 359 332 327 6 26 32 295 307 295 221 207 224 208
163 152 155 158 162 158 150 148 136 125 123 133 102 13 287 50 68 38 91 294 98 54 15 340 337 339 358 1 354 16 347 347 342 338 338 321 351 346 319 314 286 234 202
164 155 154 157 159 150 143 141 131 129 128 127 133 224 335 28 35 16 60 334 123 151 97 4 340 340 1 14 7 4 359 5 5 342 330 343 355 345 59 318 319 320 282
164 154 148 145 144 136 137 138 137 135 135 155 174 198 158 221 277 285 41 308 214 143 97 34 334 350 16 15 3 346 352 6 15 357 356 9 13 6 27 354 330 308 287
168 156 148 149 146 145 149 154 154 155 164 183 204 196 177 211 234 202 156 278 307 96 80 32 339 19 14 352 357 335 335 356 22 19 15 3 348 8 12 14 335 317 288
166 160 156 155 155 157 160 170 169 169 172 193 209 199 179 198 198 148 259 256 21 83 80 15 328 26 19 352 358 329 341 6 7 15 23 342 334 19 27 27 7 337 312
162 161 159 160 162 167 171 178 175 177 179 196 201 200 184 162 146 206 241 207 55 90 64 295 278 166 120 29 358 339 358 356 13 6 2 3 349 358 18 21 25 55 341
169 169 164 168 170 173 175 180 182 185 180 188 197 175 167 156 162 244 323 23 350 93 247 280 296 233 151 164 117 337 341 332 330 220 269 356 342 10 357 346 335 0 179
172 171 167 172 172 170 172 178 184 188 178 183 189 171 176 186 192 196 178 209 252 205 244 238 278 12 20 33 126 243 338 342 337 343 23 19 40 15 347 350 344 322 4
169 168 167 170 173 175 177 181 186 184 174 179 186 176 167 184 206 192 188 209 207 202 248 252 212 59 9 342 11 318 326 285 324 347 360 344 25 38 338 348 332 325 317
175 171 169 175 178 179 179 181 182 176 167 173 186 181 183 189 194 195 181 212 208 209 225 220 184 145 272 329 318 294 289 282 244 176 19 347 13 346 330 312 315 319 327
184 179 175 180 179 180 183 185 181 170 166 170 185 196 194 180 183 183 170 207 215 231 249 222 197 173 153 317 314 318 299 287 281 205 161 172 52 36 7 349 353 339 333
192 186 181 183 182 184 187 188 179 171 173 172 185 196 196 174 173 167 179 201 200 240 252 279 265 214 187 194 26 331 319 312 293 266 210 159 140 121 109 17 359 351 334
212 201 191 188 187 189 190 188 179 175 176 179 185 188 189 169 166 171 184 191 194 241 261 265 265 262 229 162 165 197 306 308 299 276 232 176 174 183 196 219 235 244 275
240 217 207 195 192 193 190 187 181 176 181 184 181 176 180 170 171 185 185 187 202 217 226 242 255 249 209 191 191 204 246 278 284 289 289 262 166 166 194 230 239 245 240
258 232 222 205 193 193 185 180 175 177 183 185 180 173 175 175 175 184 188 194 215 212 205 224 242 242 219 206 206 216 239 260 258 256 255 245 178 150 146 278 267 259 243
302 254 235 216 200 195 183 175 176 180 183 184 179 174 174 174 177 184 190 201 211 216 216 223 229 232 236 207 205 205 245 259 257 240 226 198 149 130 127 265 289 298 301
329 303 270 241 212 198 178 175 178 181 184 180 179 176 173 171 177 185 191 194 195 205 214 231 229 219 218 183 192 199 246 269 273 250 181 143 134 130 120 86 318 317 319
328 319 288 270 234 196 175 177 182 185 180 170 172 171 166 167 173 177 179 185 193 196 207 225 220 208 181 165 176 185 235 283 306 316 67 106 131 144 152 173 288 299 313
323 316 297 286 268 207 179 184 190 179 161 158 163 167 164 171 172 167 176 186 184 191 206 217 213 188 156 148 177 200 220 261 296 319 16 83 116 147 156 185 312 324 328
315 307 288 275 265 235 197 194 188 163 152 154 162 166 166 166 161 163 174 181 182 189 198 189 182 165 124 113 127 211 232 243 230 69 71 85 103 125 172 226 323 351 335
318 301 285 268 259 247 223 204 175 158 156 162 167 169 172 166 159 156 162 163 169 176 178 162 148 126 92 74 43 355 328 280 229 238 179 151 130 105 69 80 59 39 22
311 301 281 265 257 249 228 206 185 174 174 173 174 177 173 164 155 133 116 141 116 138 143 127 110 111 107 81 63 55 33 23 34 343 135 108 88 73 61 59 55 48 36
311 305 293 275 260 250 238 211 193 187 188 185 181 177 171 161 150 138 103 64 98 100 97 99 110 94 106 118 89 65 44 29 28 59 86 85 78 73 62 55 44 46 38